Location: Colonia Mina de C?rbuni
(46.1667°N, 22.7167°E)
Time: 05:26:36
(UTC+00:00)

Cosmos 1932 - Pass Details

Date: 04 February 2023
Orbit: 920 x 1009 km, 65.0° (Epoch: 20 March)

Event Time Altitude Azimuth Distance (km) Brightness Sun altitude
Rises 18:03:27 0° 205° (SSW) 3,641 7.8 -25.4°
Reaches altitude 10° 18:05:59 10° 202° (SSW) 2,711 7.0 -25.9°
Maximum altitude 18:12:17 69° 121° (ESE) 1,058 4.4 -26.9°
Enters shadow 18:12:29 68° 109° (ESE) 1,061 4.4 -27.0°
